Regional Weather Roundup
Issued by NWS

Home | Current Version | Previous Version | Graphics & Text | Print | Product List | Glossary On
Versions: 1 2 3 4 5 6 7 8 9 10 11 12 13 14 15 16 17 18 19 20 21 22 23 24 25 26 27 28 29 30 31 32 33 34 35 36 37 38 39 40 41 42 43 44 45 46 47 48 49 50
000
ASUS43 KMKX 311100
RWRWI

WISCONSIN REGIONAL WEATHER ROUNDUP
NATIONAL WEATHER SERVICE MILWAUKEE/SULLIVAN WI
600 AM CDT FRI OCT 31 2014

NOTE: "FAIR" INDICATES FEW OR NO CLOUDS BELOW 12,000 FEET WITH NO
SIGNIFICANT WEATHER AND/OR OBSTRUCTIONS TO VISIBILITY.

WIZ001-002-006>008-014>016-023>028-311200-
NORTHWEST WISCONSIN

CITY           SKY/WX    TMP DP  RH WIND       PRES   REMARKS
SUPERIOR ARPT  MOCLDY    29  18  64 N6G17     30.51S WCI  22
ASHLAND        LGT SNOW  28  26  92 N12       30.46S FOG     WCI  18
HAYWARD        CLEAR     27  20  75 N12G20    30.43R WCI  17
SIREN          CLOUDY    28  17  63 N10       30.48R WCI  19
CUMBERLAND     PTCLDY    28  18  64 N15G25    30.42R WCI  17
RICE LAKE      CLEAR     29  19  68 N9G23     30.43R WCI  20
CHETEK         CLEAR     29  21  71 NW13G21   30.41R WCI  19
LADYSMITH      MOCLDY    29  23  76 N17G25    30.39R WCI  17
EAU CLAIRE     NOT AVBL
MENOMONIE      CLEAR     31  19  61 NW13G26   30.41R WCI  21
NEW RICHMOND   MOCLDY    28  17  64 N13       30.45R WCI  17
OSCEOLA        CLEAR     27  18  67 N6        30.50R WCI  21
$$

WIZ003>005-009-010-017-018-311200-
NORTH CENTRAL WISCONSIN

CITY           SKY/WX    TMP DP  RH WIND       PRES   REMARKS
MANITOWISH WTR CLOUDY    26  24  89 N15G22    30.31R WCI  14
ARBOR VITAE    LGT SNOW  29  27  92 N16G25    30.29R WCI  18
WOODRUFF       LGT SNOW  29  27  92 N16G25    30.29R WCI  18
RHINELANDER    MOCLDY    27  21  78 N12G18    30.28R WCI  17
EAGLE RIVER    FLURRIES  27  22  81 N13G20    30.27R WCI  16
LAND O LAKES   FLURRIES  28  24  88 N16G24    30.28R WCI  15
PHILLIPS       PTCLDY    27  22  82 N10G20    30.32R WCI  17
TOMAHAWK       MOCLDY    28  22  79 N9G21     30.29R WCI  19
MEDFORD        CLOUDY    29  22  74 N20G32    30.29R WCI  16
MERRILL        PTCLDY    29  23  77 N17G26    30.26R WCI  17
$$

WIZ029-030-035-036-043>047-311200-
CENTRAL WISCONSIN

CITY           SKY/WX    TMP DP  RH WIND       PRES   REMARKS
WAUSAU         CLEAR     30  21  69 N20G33    30.25R WCI  17
MOSINEE        MOCLDY    30  25  80 N15G25    30.26R WCI  19
MARSHFIELD     CLOUDY    32  22  66 N18G28    30.28R WCI  20
STEVENS POINT  CLOUDY    30  23  77 N13G20    30.24R WCI  20
WAUPACA        MOCLDY    35  29  80 N14G24    30.20R WCI  25
WAUTOMA        NOT AVBL
WISC RAPIDS    MOCLDY    32  23  69 N21G28    30.27R WCI  20
CAMP DOUGLAS   NOT AVBL
$$

WIZ011>013-019>022-031-037>040-048>050-311200-
NORTHEAST WISCONSIN

CITY           SKY/WX    TMP DP  RH WIND       PRES   REMARKS
ANTIGO         CLOUDY    29  24  83 N22G31    30.21R WCI  15
SHAWANO        CLOUDY    37  25  62 N20G31    30.18R WCI  26
OCONTO         CLOUDY    35  26  68 N20G38    30.14R WCI  24
STURGEON BAY   CLOUDY    34  28  80 N35G44    30.10R WCI  19
GREEN BAY      CLOUDY    36  27  69 N22G32    30.15R WCI  25
MANITOWOC      LGT RAIN  36  34  93 N21G35    30.09R WCI  24
APPLETON       CLOUDY    36  23  60 N24G35    30.15R WCI  24
CLINTONVILLE   MOCLDY    34  27  75 N15G24    30.18R WCI  24
OSHKOSH        CLOUDY    36  27  69 N21G30    30.15R WCI  25
$$

WIZ032>034-041-042-053>061-311200-
SOUTHWEST WISCONSIN

CITY           SKY/WX    TMP DP  RH WIND       PRES   REMARKS
LA CROSSE      PTCLDY    32  20  61 N14       30.36R WCI  22
SPARTA         CLOUDY    32  21  64 N10G24    30.32R WCI  24
VIROQUA        MOCLDY    31  21  68 N21G31    30.28R WCI  18
BOSCOBEL       CLEAR     34  21  59 NW13      30.30R WCI  25
PRAIRIE DU CHI CLEAR     33  19  58 NW14      30.31R WCI  23
PLATTEVILLE    MOCLDY    33  21  63 NW20G28   30.24R WCI  21
$$

WIZ056-057-062-063-064-067-068-311200-
SOUTH CENTRAL WISCONSIN

CITY           SKY/WX    TMP DP  RH WIND       PRES   REMARKS
REEDSBURG      CLOUDY    33  25  73 N18G26    30.23R WCI  21
BARABOO/DELLS  CLOUDY    33  25  73 N15G22    30.22R WCI  23
LONE ROCK      NOT AVBL
MINERAL POINT  CLOUDY    32  23  69 NW17G30   30.21R WCI  21
MADISON        MOCLDY    33  28  81 N18G30    30.18R WCI  22
MIDDLETON      CLOUDY    33  30  88 N24       30.18R WCI  21
WATERTOWN      LGT SNOW  32  32 100 N14       30.12R WCI  22
MONROE         MOCLDY    32  27  80 NW21G32   30.16R WCI  20
JANESVILLE     LGT SNOW  36  28  75 NW20G31   30.13R WCI  25
$$

WIZ051-052-058>065-066-070>072-311200-
SOUTHEAST WISCONSIN

CITY           SKY/WX    TMP DP  RH WIND       PRES   REMARKS
MILWAUKEE      LGT SNOW  33  30  88 NW13      30.08R WCI  24
WAUKESHA       LGT SNOW  32  30  93 NW17G24   30.10R WCI  21
MILWAUKEE/TIMM LGT SNOW  32  30  93 NW14G20   30.09R WCI  22
RACINE         CLOUDY    37  29  72 NW17G24   30.08R WCI  27
BURLINGTON     LGT SNOW  32  28  85 NW22      30.10R WCI  20
KENOSHA        FLURRIES  35  31  85 NW14G29   30.08R WCI  26
FOND DU LAC    CLOUDY    36  26  67 N21G29    30.14R WCI  25
SHEBOYGAN      CLOUDY    35  30  82 N18G29    30.08R WCI  24
WEST BEND      LGT RAIN  32  32 100 N13       30.09R WCI  22
JUNEAU         CLOUDY    33  31  93 NW14G23   30.13R WCI  23
$$

LSZ147-162-311200-
LAKE SUPERIOR

STATION/POSITION TIME  TEMP    WIND        PRES    WAVE
                       AIR SEA DIR/SP/G            HT/PER
                 (UTC) (F)     (DEG/KT/KT) (MB)    (FT/S)
W MID LAKE BUOY  0950   33 44  360/ 25/ 29 1029.5R   8/ 7
DEVILS ISLAND    1000   33      10/ 22/ 28 1032.0R
PORT WING        1040   33      10/ 20/ 25 1032.5R
SAXON HARBOR     1036   36     360/ 24/ 26 1030.1R
$$

LMZ867-665-643>646-311200-
LAKE MICHIGAN

STATION/POSITION TIME  TEMP    WIND        PRES    WAVE
                       AIR SEA DIR/SP/G            HT/PER
                 (UTC) (F)     (DEG/KT/KT) (MB)    (FT/S)
CHAMBERS ISLAND  1000   37     330/ 28/ 36 1019.0R
N MID LAKE BUOY  0950   39 51  350/ 35/ 43 1015.2R   7/ 6
NORTHPORT PIER   1000   38     350/ 33/ 42 1018.6R
KEWAUNEE LAKESHO 1000   35     340/ 17/ 24 1016.9R
SHEBOYGAN LAKESH 1000   36 49  340/ 19/ 23 1018.8R
PORT WASHINGTON  1000   37     310/ 10/ 24 1018.6
ATWATER BUOY     1000   40     290/ 19/ 25 1018.7R
MILWAUKEE LAKESH 1000   38     310/ 13/ 20   N/A
S MID LAKE BUOY  0950   45 53  320/ 27/ 33 1015.2R   6/ 6
KENOSHA   LAKESH 1000   39     310/ 21/ 27 1016.9R
$$

TC  - TEMPERATURE IN CELSIUS
VSB - VISIBILITY IN STATUTE MILES
WCI - WIND CHILL INDEX
HX  - HEAT INDEX




USA.gov is the U.S. government's official web portal to all federal, state and local government web resources and services.